Location: Doverdale
(52.2833°N, 2.2000°W)
Time: 11:04:59
(UTC+00:00)

Cosmos 2058 Rocket - Pass Details

Date: 29 October 2020
Orbit: 610 x 639 km, 82.5° (Epoch: 24 November)

Event Time Altitude Azimuth Distance (km) Brightness Sun altitude
Rises 18:18:36 0° 193° (SSW) 2,923 6.7 -14.8°
Reaches altitude 10° 18:20:49 10° 194° (SSW) 2,022 5.9 -15.2°
Maximum altitude 18:25:19 78° 281° (W) 660 3.2 -15.9°
Drops below altitude 10° 18:29:52 10° 9° (N) 2,045 5.6 -16.6°
Sets 18:32:08 0° 11° (N) 2,959 6.4 -16.9°
